Location: *
(37.5724°S, 58.0067°E)
Time: 13:37:54
(UTC+00:00)

Lacrosse 5 - Pass Details

Date: 23 January 2021
Orbit: 715 x 724 km, 57.0° (Epoch: 03 March)

Event Time Altitude Azimuth Distance (km) Brightness Sun altitude
Exits shadow 18:56:57 38° 145° (SE) 1,102 2.9 -29.9°
Drops below altitude 10° 19:00:08 10° 140° (SE) 2,240 4.7 -30.2°
Sets 19:02:33 0° 139° (SE) 3,167 5.5 -30.3°
